Tucumcari, NM

9:31 PM MDT on August 23, 2017 (GMT -0600)
Tucumcari Municipal

Weather History for KTCC - September, 2013

Change the Weather History Date:

Wednesday, September 4, 2013

  Actual Average Record
Temperature  
Mean Temperature 80 °F -  
Max Temperature 96 °F 88 °F 102 °F (1947)
Min Temperature 64 °F 60 °F 36 °F (1961)
Cooling Degree Days 14    
Growing Degree Days 30 (Base 50)    
Moisture  
Dew Point 44 °F    
Average Humidity 29    
Maximum Humidity 50    
Minimum Humidity 15    
Precipitation  
Precipitation 0.00 in - - ()
Sea Level Pressure  
Sea Level Pressure 29.98 in    
Wind  
Wind Speed 8 mph (SSW)    
Max Wind Speed 14 mph    
Max Gust Speed 18 mph    
Visibility 10 miles    
Events      
Averages and records for this station are not official NWS values.
T = Trace of Precipitation, MM = Missing Value Source: NWS Daily Summary

Daily Weather History Graph

Daily Weather History Graph

Search for Another Location

Airport or City:

Trip Planner

Search our weather history database for the weather conditions in past years. The results will help you decide how hot, cold, wet, or windy it might be!

Date:

Astronomy

Sep. 04, 2013 Rise Set
Actual Time 6:29 AM MDT 7:16 PM MDT
Civil Twilight 6:03 AM MDT 7:42 PM MDT
Nautical Twilight 5:33 AM MDT 8:12 PM MDT
Astronomical Twilight 5:01 AM MDT 8:43 PM MDT
Moon 5:43 AM MDT (9/4) 6:39 PM MDT (9/4)
Length of Visible Light 13h 38m
Length of Day
12h 47m
Waning Crescent, 1% of the Moon is Illuminated
Sep 4
Waning Crescent
Sep 5
New
Sep 12
First Quarter
Sep 19
Full
Sep 26
Last Quarter

Hourly Weather History & Observations

Time (MDT) Temp. Dew Point Humidity Pressure Visibility Wind Dir Wind Speed Gust Speed Precip Events Conditions
12:53 AM 73.9 °F 46.9 °F 38% 29.94 in 10.0 mi SSW 9.2 mph - N/A   Clear
1:53 AM 72.0 °F 48.0 °F 43% 29.96 in 10.0 mi WSW 6.9 mph - N/A   Clear
2:53 AM 71.1 °F 45.0 °F 39% 29.96 in 10.0 mi WSW 8.1 mph - N/A   Clear
3:53 AM 71.1 °F 45.0 °F 39% 29.96 in 10.0 mi West 9.2 mph - N/A   Clear
4:53 AM 66.0 °F 46.0 °F 48% 29.99 in 10.0 mi South 5.8 mph - N/A   Clear
5:53 AM 66.0 °F 46.9 °F 50% 30.01 in 10.0 mi SSE 4.6 mph - N/A   Clear
6:53 AM 64.9 °F 46.0 °F 50% 30.02 in 10.0 mi West 3.5 mph - N/A   Clear
7:53 AM 73.0 °F 46.0 °F 38% 30.03 in 10.0 mi WSW 4.6 mph - N/A   Clear
8:53 AM 79.0 °F 46.9 °F 32% 30.03 in 10.0 mi WSW 3.5 mph - N/A   Clear
9:53 AM 84.9 °F 46.9 °F 27% 30.03 in 10.0 mi WSW 8.1 mph - N/A   Clear
10:53 AM 90.0 °F 48.9 °F 24% 30.01 in 10.0 mi SSW 13.8 mph - N/A   Clear
11:53 AM 91.9 °F 46.0 °F 21% 29.99 in 10.0 mi WSW 5.8 mph - N/A   Clear
12:53 PM 93.0 °F 46.0 °F 20% 29.98 in 10.0 mi SSW 9.2 mph 17.3 mph N/A   Clear
1:53 PM 95.0 °F 43.0 °F 17% 29.97 in 10.0 mi South 9.2 mph 17.3 mph N/A   Clear
2:53 PM 95.0 °F 44.1 °F 17% 29.96 in 10.0 mi SSE 9.2 mph 18.4 mph N/A   Clear
3:53 PM 95.0 °F 44.1 °F 17% 29.94 in 10.0 mi SSE 8.1 mph - N/A   Clear
4:53 PM 95.0 °F 39.9 °F 15% 29.94 in 10.0 mi SE 9.2 mph - N/A   Clear
5:53 PM 93.9 °F 39.0 °F 15% 29.94 in 10.0 mi South 9.2 mph - N/A   Clear
6:53 PM 91.0 °F 39.0 °F 16% 29.95 in 10.0 mi South 8.1 mph - N/A   Clear
7:53 PM 82.0 °F 39.9 °F 22% 29.96 in 10.0 mi South 6.9 mph - N/A   Clear
8:53 PM 79.0 °F 42.1 °F 27% 29.99 in 10.0 mi South 8.1 mph - N/A   Clear
9:53 PM 77.0 °F 43.0 °F 30% 29.99 in 10.0 mi South 6.9 mph - N/A   Clear
10:53 PM 77.0 °F 43.0 °F 30% 29.99 in 10.0 mi SW 5.8 mph - N/A   Clear
11:53 PM 73.0 °F 42.1 °F 33% 30.00 in 10.0 mi SSW 5.8 mph - N/A   Clear